McConnell AFB, KS

6:36 AM CST on December 03, 2016 (GMT -0600)
McConnell Air Force Base

Weather History for KIAB - April, 2014

Change the Weather History Date:

Friday, April 11, 2014

  Actual Average Record
Temperature  
Mean Temperature 64 °F -  
Max Temperature 80 °F 65 °F 80 °F (2014)
Min Temperature 49 °F 44 °F 26 °F (1997)
Degree Days  
Heating Degree Days 1    
Growing Degree Days 14 (Base 50)    
Moisture  
Dew Point 40 °F    
Average Humidity 43    
Maximum Humidity 83    
Minimum Humidity 27    
Precipitation  
Precipitation 0.00 in - - ()
Sea Level Pressure  
Sea Level Pressure 29.96 in    
Wind  
Wind Speed 10 mph (East)    
Max Wind Speed 17 mph    
Max Gust Speed 24 mph    
Visibility 10 miles    
Events      
Averages and records for this station are not official NWS values.
T = Trace of Precipitation, MM = Missing Value Source: NWS Daily Summary

Daily Weather History Graph

Daily Weather History Graph

Search for Another Location

Airport or City:

Trip Planner

Search our weather history database for the weather conditions in past years. The results will help you decide how hot, cold, wet, or windy it might be!

Date:

Astronomy

Apr. 11, 2014 Rise Set
Actual Time 6:59 AM CDT 8:01 PM CDT
Civil Twilight 6:32 AM CDT 8:27 PM CDT
Nautical Twilight 6:01 AM CDT 8:59 PM CDT
Astronomical Twilight 5:28 AM CDT 9:32 PM CDT
Moon 4:46 PM CDT (4/11) 4:51 AM CDT (4/11)
Length of Visible Light 13h 54m
Length of Day
13h 01m
Waxing Gibbous, 87% of the Moon is Illuminated
Apr 11
Waxing Gibbous
Apr 15
Full
Apr 22
Last Quarter
Apr 29
New
May 6
First Quarter

Hourly Weather History & Observations

Time (CDT) Temp. Dew Point Humidity Pressure Visibility Wind Dir Wind Speed Gust Speed Precip Events Conditions
12:58 AM 53.4 °F 30.2 °F 41% 29.98 in 10.0 mi NE 6.9 mph - N/A   Clear
1:58 AM 52.9 °F 27.7 °F 38% 29.99 in 10.0 mi ENE 9.2 mph - N/A   Clear
2:38 AM 51.8 °F 26.6 °F 38% 29.99 in 10.0 mi East 12.7 mph - N/A   Clear
2:58 AM 53.6 °F 27.3 °F 36% 29.98 in 10.0 mi ENE 10.4 mph - N/A   Clear
3:58 AM 49.1 °F 29.1 °F 46% 29.99 in 10.0 mi ENE 8.1 mph - N/A   Clear
4:58 AM 49.5 °F 30.0 °F 47% 29.99 in 10.0 mi NNE 12.7 mph - N/A   Clear
5:58 AM 50.5 °F 27.5 °F 41% 30.02 in 10.0 mi NE 10.4 mph - N/A   Clear
6:58 AM 52.3 °F 27.9 °F 39% 30.01 in 10.0 mi East 9.2 mph - N/A   Clear
7:58 AM 52.2 °F 29.3 °F 41% 30.02 in 10.0 mi East 8.1 mph - N/A   Clear
8:58 AM 54.5 °F 32.0 °F 42% 30.02 in 10.0 mi East 11.5 mph - N/A   Clear
9:58 AM 61.3 °F 37.9 °F 42% 30.02 in 10.0 mi ESE 17.3 mph 24.2 mph N/A   Clear
10:58 AM 66.7 °F 41.0 °F 39% 30.02 in 10.0 mi ESE 15.0 mph - N/A   Clear
11:58 AM 71.6 °F 39.9 °F 32% 30.02 in 10.0 mi SE 8.1 mph - N/A   Clear
12:58 PM 74.7 °F 40.1 °F 29% 30.00 in 10.0 mi SE 8.1 mph - N/A   Clear
1:58 PM 76.6 °F 40.3 °F 27% 29.98 in 10.0 mi East 10.4 mph - N/A   Clear
2:58 PM 78.6 °F 41.9 °F 27% 29.95 in 10.0 mi ESE 8.1 mph - N/A   Clear
3:58 PM 79.3 °F 43.2 °F 28% 29.92 in 10.0 mi SE 10.4 mph - N/A   Clear
4:58 PM 79.5 °F 45.1 °F 30% 29.89 in 10.0 mi SE 11.5 mph - N/A   Clear
5:58 PM 79.7 °F 44.1 °F 28% 29.88 in 10.0 mi ESE 11.5 mph - N/A   Clear
6:58 PM 77.9 °F 47.5 °F 34% 29.86 in 10.0 mi ESE 11.5 mph - N/A   Clear
7:55 PM 73.8 °F 51.4 °F 45% 29.86 in 10.0 mi ESE 8.1 mph - N/A   Clear
8:55 PM 70.2 °F 55.4 °F 59% 29.87 in 10.0 mi ESE 9.2 mph - N/A   Clear
9:55 PM 68.0 °F 59.0 °F 73% 29.88 in 10.0 mi SE 11.5 mph - N/A   Clear
10:55 PM 66.0 °F 60.3 °F 82% 29.88 in 10.0 mi SE 10.4 mph - N/A   Clear
11:55 PM 65.7 °F 60.3 °F 83% 29.87 in 10.0 mi SSE 15.0 mph - N/A   Clear